Location: Gad�tanya
(48.0500°N, 20.8500°E)
Time: 10:53:52
(UTC+00:00)

Helios 1B rocket - Pass Details

Date: 05 July 2020
Orbit: 574 x 584 km, 98.1° (Epoch: 14 August)

Event Time Altitude Azimuth Distance (km) Brightness Sun altitude
Rises 22:13:01 0° 27° (NNE) 2,815 6.9 -19.0°
Reaches altitude 10° 22:15:41 10° 44° (NE) 1,907 5.6 -19.0°
Maximum altitude 22:18:45 20° 93° (E) 1,367 4.2 -19.1°
Enters shadow 22:19:34 19° 109° (ESE) 1,409 4.1 -19.1°
